Date,TemperatureHighF,TemperatureAvgF,TemperatureLowF,DewpointHighF,DewpointAvgF,DewpointLowF,HumidityHigh,HumidityAvg,HumidityLow,PressureMaxIn,PressureMinIn,WindSpeedMaxMPH,WindSpeedAvgMPH,GustSpeedMaxMPH,PrecipitationSumIn
2013-3-1,37,34,32,31,29,28,86,81,73,30.14,30.08,5,1,10,0.05
2013-3-2,34,31,30,28,24,19,86,76,64,30.24,30.12,5,1,12,0.02
2013-3-3,45,34,22,24,18,13,74,54,33,30.24,30.10,5,0,9,0.01
2013-3-4,66,51,36,40,26,18,52,40,26,30.11,29.78,11,4,21,0.00
2013-3-5,60,47,34,51,37,19,85,68,51,30.15,29.77,11,4,24,0.66
2013-3-6,42,35,28,26,22,20,75,59,51,30.35,30.15,9,3,56,0.01
2013-3-7,52,38,26,33,26,20,82,64,41,30.41,30.32,3,0,9,0.00
2013-3-8,63,46,29,32,25,20,79,49,20,30.42,30.23,3,0,10,0.00
2013-3-9,70,57,47,35,28,22,46,33,23,30.23,29.97,9,2,15,0.00
2013-3-10,68,59,51,52,43,34,88,57,38,29.99,29.76,13,5,25,1.21
2013-3-11,52,42,34,49,36,25,88,78,65,30.05,29.82,6,2,11,0.02
2013-3-12,54,40,28,34,26,23,83,61,33,30.20,30.04,6,1,14,0.00
2013-3-13,46,40,32,29,22,18,62,50,38,30.42,30.20,8,3,16,0.00
2013-3-14,55,42,26,28,22,17,70,47,27,30.45,30.17,4,1,8,0.00
2013-3-15,78,62,47,47,40,28,59,45,31,30.17,29.89,5,2,13,0.00
2013-3-16,76,66,55,51,48,43,66,52,40,29.94,29.85,7,2,13,0.00
2013-3-17,63,53,46,50,44,39,83,72,63,29.96,29.71,5,1,12,0.00
2013-3-18,66,54,41,56,46,36,81,74,63,30.03,29.68,10,2,18,0.01
2013-3-19,57,47,35,38,28,20,86,51,27,30.22,30.05,5,1,9,0.01
2013-3-20,52,43,32,34,26,13,74,52,26,30.24,30.06,10,2,21,0.01
2013-3-21,47,36,23,21,16,13,71,46,27,30.14,29.97,5,0,10,0.00
2013-3-22,51,44,36,40,30,22,84,60,45,30.02,29.92,3,1,9,0.04
2013-3-23,57,49,44,45,40,-49,84,74,1,29.98,29.73,4,0,12,0.21
2013-3-24,51,45,36,47,37,-48,89,77,1,29.88,29.52,12,5,24,0.41
2013-3-25,38,35,33,24,23,21,66,61,55,30.21,29.88,11,5,23,0.01
2013-3-26,43,36,30,30,25,20,82,66,50,30.37,30.21,5,2,11,0.00
2013-3-27,55,40,24,31,24,18,81,56,31,30.42,30.32,6,1,14,0.00
2013-3-28,65,51,35,32,29,25,68,45,27,30.38,30.26,4,0,7,0.00
2013-3-29,53,49,47,45,37,28,85,64,41,30.29,30.19,3,0,6,0.05
2013-3-30,55,49,42,52,44,-100,89,87,85,30.22,29.95,2,0,7,0.22
2013-3-31,62,56,47,53,50,41,88,81,62,29.99,29.91,5,0,12,0.30